DW8513 Weather Reports


time (UTC)temp
C
wind
direction
speed
KPH
gust
KPH
rain 1hr
cm
rain 24hr
cm
rain mn
cm
humidity
%
barometer
mb
20260505112020 12 204 1.6 11.3 0.00 0.00 0.00 74 1012.1
20260505111520 12 200 3.2 11.3 0.00 0.00 0.00 74 1012.1
20260505111017 12 284 1.6 6.4 0.00 0.00 0.00 74 1012.1
20260505110514 12 227 0.0 11.3 0.00 0.00 0.00 74 1012.0
20260505102016 12 190 0.0 11.3 0.00 0.00 0.00 73 1011.7
20260505101510 12 227 1.6 11.3 0.00 0.00 0.00 73 1011.6
20260505101010 12 192 0.0 9.7 0.00 0.00 0.00 73 1011.6
20260505100510 12 199 1.6 6.4 0.00 0.00 0.00 73 1011.6
20260505100009 12 232 1.6 11.3 0.00 0.00 0.00 73 1011.5
20260505095508 12 222 1.6 11.3 0.00 0.00 0.00 73 1011.5
20260505095008 12 192 0.0 9.7 0.00 0.00 0.00 73 1011.5
20260505094508 12 177 0.0 6.4 0.00 0.00 0.00 73 1011.4
20260505094007 12 201 0.0 6.4 0.00 0.00 0.00 73 1011.4
20260505093507 12 204 0.0 6.4 0.00 0.00 0.00 73 1011.4
20260505093006 12 219 1.6 8.0 0.00 0.00 0.00 73 1011.4
20260505092505 12 219 1.6 8.0 0.00 0.00 0.00 73 1011.2
20260505092004 12 163 3.2 8.0 0.00 0.00 0.00 73 1011.2
20260505091504 12 175 1.6 8.0 0.00 0.00 0.00 74 1011.1
20260505091002 12 206 0.0 9.7 0.00 0.00 0.00 74 1011.1
20260505090502 12 170 1.6 9.7 0.00 0.00 0.00 74 1011.1
20260505090002 12 183 1.6 11.3 0.00 0.00 0.00 74 1011.1
20260505085503 12 213 0.0 6.4 0.00 0.00 0.00 74 1011.1
20260505085101 12 173 1.6 8.0 0.00 0.00 0.00 74 1011.1
20260505084600 12 178 1.6 8.0 0.00 0.00 0.00 74 1011.0
20260505084100 12 190 1.6 8.0 0.00 0.00 0.00 74 1011.0
20260505083558 12 188 1.6 9.7 0.00 0.00 0.00 75 1010.9
20260505083112 12 153 0.0 9.7 0.00 0.00 0.00 75 1010.9
20260505082557 12 236 1.6 8.0 0.00 0.00 0.00 75 1010.9
20260505082057 12 213 1.6 8.0 0.00 0.00 0.00 75 1010.8
20260505081558 12 169 1.6 9.7 0.00 0.00 0.00 75 1010.8
20260505081057 12 213 1.6 9.7 0.00 0.00 0.00 75 1010.8
20260505080556 12 180 1.6 8.0 0.00 0.00 0.00 75 1010.8
20260505080055 12 180 1.6 8.0 0.00 0.00 0.00 76 1010.8
20260505075554 13 205 0.0 6.4 0.00 0.00 0.00 76 1010.8
20260505075054 13 185 1.6 6.4 0.00 0.00 0.00 76 1010.8
20260505074554 13 166 1.6 6.4 0.00 0.00 0.00 76 1010.8
20260505074053 13 223 3.2 6.4 0.00 0.00 0.00 76 1010.7
20260505073554 13 173 1.6 6.4 0.00 0.00 0.00 76 1010.6
20260505073053 13 173 1.6 8.0 0.00 0.00 0.00 77 1010.5
20260505072550 13 218 3.2 8.0 0.00 0.00 0.00 77 1010.5
20260505072049 13 208 3.2 9.7 0.00 0.00 0.00 78 1010.4
20260505071549 13 213 1.6 9.7 0.00 0.00 0.00 78 1010.4
20260505071049 13 240 1.6 9.7 0.00 0.00 0.00 79 1010.4
20260505070550 13 223 1.6 16.1 0.00 0.00 0.00 80 1010.2
20260505070051 13 237 1.6 6.4 0.00 0.00 0.00 80 1010.2
20260505065546 13 228 1.6 9.7 0.00 0.00 0.00 81 1010.2
20260505065045 13 277 1.6 9.7 0.00 0.00 0.00 81 1010.2
20260505064556 13 171 1.6 9.7 0.00 0.00 0.00 82 1010.1
20260505064045 13 219 0.0 6.4 0.00 0.00 0.00 82 1010.0
20260505063544 14 216 1.6 9.7 0.00 0.00 0.00 82 1010.1
20260505063051 14 176 1.6 9.7 0.00 0.00 0.00 82 1010.0
20260505062543 14 204 1.6 6.4 0.00 0.00 0.00 82 1010.0
20260505062041 14 178 1.6 6.4 0.00 0.00 0.00 82 1009.9
20260505061544 15 188 0.0 8.0 0.00 0.00 0.00 82 1009.8
20260505061041 15 153 1.6 8.0 0.00 0.00 0.00 82 1009.8
20260505060542 15 195 0.0 6.4 0.00 0.00 0.00 82 1009.6
20260505060041 15 165 0.0 8.0 0.00 0.00 0.00 82 1009.5
20260505055543 15 172 1.6 8.0 0.00 0.00 0.00 81 1009.4
20260505055041 15 190 1.6 6.4 0.00 0.00 0.00 81 1009.3
20260505054543 15 210 1.6 11.3 0.00 0.00 0.00 81 1009.3
20260505054040 15 188 1.6 11.3 0.00 0.00 0.00 80 1009.3
20260505053542 15 136 4.8 9.7 0.00 0.00 0.00 80 1009.2
20260505053041 15 175 3.2 9.7 0.00 0.00 0.00 80 1009.1
20260505052540 16 183 1.6 9.7 0.00 0.00 0.00 79 1009.0
20260505052042 16 173 3.2 11.3 0.00 0.00 0.00 79 1009.0
20260505051540 16 82 1.6 12.9 0.00 0.00 0.00 78 1009.0
20260505051040 16 198 4.8 12.9 0.00 0.00 0.00 78 1009.0
20260505050539 16 186 4.8 11.3 0.00 0.00 0.00 77 1009.0
20260505041546 18 222 0.0 3.2 0.00 0.00 0.00 71 1008.5
20260505041038 18 215 0.0 3.2 0.00 0.00 0.00 70 1008.5
20260505040538 19 215 0.0 1.6 0.00 0.00 0.00 70 1008.4
20260505040038 19 215 0.0 4.8 0.00 0.00 0.00 69 1008.4
20260505035537 19 215 0.0 4.8 0.00 0.00 0.00 68 1008.2
20260505035041 20 242 0.0 4.8 0.00 0.00 0.00 67 1008.1
20260505034542 20 267 0.0 3.2 0.00 0.00 0.00 66 1008.1
20260505034043 20 278 0.0 3.2 0.00 0.00 0.00 64 1008.1
20260505033538 20 15 0.0 3.2 0.00 0.00 0.00 60 1008.0
20260505033037 21 15 0.0 1.6 0.00 0.00 0.00 58 1007.9
20260505032537 21 15 0.0 0.0 0.00 0.00 0.00 57 1007.9
20260505032036 21 15 0.0 0.0 0.00 0.00 0.00 56 1007.8
20260505031537 21 15 0.0 0.0 0.00 0.00 0.00 56 1007.8
20260505031037 21 15 0.0 0.0 0.00 0.00 0.00 56 1007.8
20260505030536 21 15 0.0 0.0 0.00 0.00 0.00 56 1007.8
20260505030036 21 15 0.0 0.0 0.00 0.00 0.00 55 1007.7
20260505025536 21 15 0.0 0.0 0.00 0.00 0.00 55 1007.7
20260505025036 21 15 0.0 0.0 0.00 0.00 0.00 55 1007.7
20260505024543 21 15 0.0 0.0 0.00 0.00 0.00 55 1007.6
20260505024035 21 16 0.0 0.0 0.00 0.00 0.00 56 1007.6
20260505023537 21 16 0.0 0.0 0.00 0.00 0.00 56 1007.6
20260505023043 21 51 0.0 0.0 0.00 0.00 0.00 56 1007.5
20260505022537 20 41 0.0 0.0 0.00 0.00 0.00 57 1007.5
20260505022035 20 42 0.0 4.8 0.00 0.00 0.00 58 1007.6
20260505021540 20 51 0.0 4.8 0.00 0.00 0.00 58 1007.6
20260505021034 20 129 0.0 1.6 0.00 0.00 0.00 58 1007.7
20260505020534 20 22 0.0 6.4 0.00 0.00 0.00 58 1007.7
20260505020034 20 53 0.0 11.3 0.00 0.00 0.00 58 1007.6
20260505015534 21 41 3.2 14.5 0.00 0.00 0.00 57 1007.7
20260505015034 21 17 3.2 14.5 0.00 0.00 0.00 56 1007.7
20260505014541 21 325 0.0 6.4 0.00 0.00 0.00 57 1007.7
20260505014033 21 148 0.0 3.2 0.00 0.00 0.00 59 1007.6
20260505013534 21 94 0.0 9.7 0.00 0.00 0.00 58 1007.5
20260505013033 22 97 1.6 14.5 0.00 0.00 0.00 55 1007.5
20260505012533 23 37 8.0 16.1 0.00 0.00 0.00 51 1007.5
20260505012034 26 33 8.0 16.1 0.00 0.00 0.00 44 1007.5
20260505011534 28 222 0.0 0.0 0.00 0.00 0.00 41 1007.4
20260505011032 28 176 0.0 0.0 0.00 0.00 0.00 40 1007.4
20260505010532 28 248 0.0 0.0 0.00 0.00 0.00 39 1007.4
20260505010038 28 244 0.0 0.0 0.00 0.00 0.00 40 1007.4
20260505005533 28 219 0.0 1.6 0.00 0.00 0.00 39 1007.4
20260505005032 29 192 0.0 0.0 0.00 0.00 0.00 39 1007.4
20260505004532 29 327 0.0 0.0 0.00 0.00 0.00 38 1007.4
20260505004032 29 197 0.0 0.0 0.00 0.00 0.00 37 1007.5
20260505003531 29 298 0.0 0.0 0.00 0.00 0.00 38 1007.5
20260505003030 29 257 0.0 0.0 0.00 0.00 0.00 38 1007.5
20260505002533 29 200 0.0 0.0 0.00 0.00 0.00 37 1007.5
20260505002030 29 187 0.0 0.0 0.00 0.00 0.00 37 1007.6
20260505001536 29 194 0.0 0.0 0.00 0.00 0.00 37 1007.6
20260505001029 29 221 0.0 0.0 0.00 0.00 0.00 37 1007.6
20260505000529 29 173 0.0 0.0 0.00 0.00 0.00 37 1007.5
20260505000039 29 192 0.0 0.0 0.00 0.00 0.00 36 1007.6
20260504235528 29 229 0.0 1.6 0.00 0.00 0.00 36 1007.6
20260504235029 30 230 0.0 1.6 0.00 0.00 0.00 35 1007.6
20260504234528 30 277 0.0 3.2 0.00 0.00 0.00 36 1007.7
20260504234028 30 288 0.0 1.6 0.00 0.00 0.00 36 1007.7
20260504233530 30 232 0.0 0.0 0.00 0.00 0.00 35 1007.7
20260504233029 30 230 0.0 0.0 0.00 0.00 0.00 34 1007.8
20260504232527 30 290 0.0 0.0 0.00 0.00 0.00 35 1007.7
20260504232026 30 254 0.0 0.0 0.00 0.00 0.00 34 1007.7
20260504231535 30 275 0.0 3.2 0.00 0.00 0.00 35 1007.7
20260504231029 30 260 0.0 0.0 0.00 0.00 0.00 34 1007.8
20260504230525 30 196 0.0 0.0 0.00 0.00 0.00 35 1007.7
20260504230025 30 249 0.0 0.0 0.00 0.00 0.00 36 1007.8
20260504225525 30 184 0.0 3.2 0.00 0.00 0.00 36 1007.9
20260504225024 29 220 0.0 3.2 0.00 0.00 0.00 36 1007.9
20260504224528 29 257 0.0 0.0 0.00 0.00 0.00 37 1008.0
20260504224027 29 200 0.0 9.7 0.00 0.00 0.00 37 1008.0
20260504223527 30 195 0.0 9.7 0.00 0.00 0.00 36 1008.1
20260504223023 30 223 0.0 0.0 0.00 0.00 0.00 35 1008.1
20260504222523 30 232 0.0 0.0 0.00 0.00 0.00 35 1008.2
20260504222023 30 180 0.0 0.0 0.00 0.00 0.00 35 1008.4
20260504221522 30 249 0.0 0.0 0.00 0.00 0.00 37 1008.4
20260504221020 30 310 0.0 0.0 0.00 0.00 0.00 37 1008.5
20260504220521 30 204 0.0 0.0 0.00 0.00 0.00 37 1008.5
20260504220021 30 265 0.0 0.0 0.00 0.00 0.00 37 1008.6
20260504215520 30 240 0.0 0.0 0.00 0.00 0.00 38 1008.6
20260504215023 30 300 0.0 0.0 0.00 0.00 0.00 40 1008.6
20260504214519 30 317 0.0 0.0 0.00 0.00 0.00 41 1008.6
20260504214020 29 326 0.0 0.0 0.00 0.00 0.00 42 1008.7
20260504213522 30 286 0.0 0.0 0.00 0.00 0.00 42 1008.7
20260504213019 30 282 0.0 0.0 0.00 0.00 0.00 42 1008.7
20260504212518 30 281 0.0 0.0 0.00 0.00 0.00 42 1008.7
20260504212017 30 239 0.0 0.0 0.00 0.00 0.00 42 1008.8
20260504211518 30 175 0.0 0.0 0.00 0.00 0.00 42 1008.8
20260504211016 30 250 0.0 0.0 0.00 0.00 0.00 43 1008.8
20260504210515 29 163 0.0 0.0 0.00 0.00 0.00 44 1008.9
20260504210015 29 267 0.0 0.0 0.00 0.00 0.00 42 1008.9
20260504205515 29 272 0.0 0.0 0.00 0.00 0.00 43 1008.9
20260504205013 28 5 0.0 0.0 0.00 0.00 0.00 43 1008.9
20260504204511 28 331 0.0 0.0 0.00 0.00 0.00 45 1008.9
20260504204011 27 281 0.0 0.0 0.00 0.00 0.00 46 1008.9
20260504203511 27 302 0.0 0.0 0.00 0.00 0.00 47 1009.0
20260504203019 27 346 0.0 0.0 0.00 0.00 0.00 47 1009.0
20260504202513 27 355 0.0 0.0 0.00 0.00 0.00 46 1009.0
20260504202008 27 300 0.0 0.0 0.00 0.00 0.00 47 1009.0
20260504201507 27 300 0.0 0.0 0.00 0.00 0.00 45 1009.0
20260504201006 26 306 0.0 1.6 0.00 0.00 0.00 46 1009.1
20260504200509 26 163 0.0 1.6 0.00 0.00 0.00 42 1009.1
20260504200004 25 241 0.0 0.0 0.00 0.00 0.00 49 1009.0
20260504195502 25 327 0.0 0.0 0.00 0.00 0.00 50 1009.0
20260504195001 25 327 0.0 0.0 0.00 0.00 0.00 49 1009.0
20260504194611 25 339 0.0 0.0 0.00 0.00 0.00 50 1009.0
20260504194059 25 342 0.0 4.8 0.00 0.00 0.00 51 1009.0
20260504193558 24 342 0.0 6.4 0.00 0.00 0.00 52 1009.1
20260504193058 24 324 0.0 1.6 0.00 0.00 0.00 52 1009.1
20260504192555 23 355 0.0 1.6 0.00 0.00 0.00 54 1009.2
20260504192056 23 360 0.0 0.0 0.00 0.00 0.00 54 1009.2
20260504191558 22 74 0.0 0.0 0.00 0.00 0.00 53 1009.2
20260504191056 22 74 0.0 4.8 0.00 0.00 0.00 53 1009.3
20260504190556 22 78 3.2 4.8 0.00 0.00 0.00 51 1009.3
20260504190125 22 78 1.6 4.8 0.00 0.00 0.00 55 1009.4
20260504185556 22 84 0.0 4.8 0.00 0.00 0.00 54 1009.4
20260504185055 22 95 0.0 3.2 0.00 0.00 0.00 53 1009.5
20260504184558 22 95 0.0 0.0 0.00 0.00 0.00 53 1009.5
20260504184058 23 95 0.0 0.0 0.00 0.00 0.00 51 1009.5
20260504183555 23 103 0.0 0.0 0.00 0.00 0.00 52 1009.5
20260504183054 23 126 0.0 0.0 0.00 0.00 0.00 52 1009.4
20260504182552 23 136 0.0 0.0 0.00 0.00 0.00 52 1009.4
20260504182051 22 136 0.0 0.0 0.00 0.00 0.00 55 1009.4
20260504181557 22 138 0.0 0.0 0.00 0.00 0.00 56 1009.5
20260504181051 22 138 0.0 0.0 0.00 0.00 0.00 54 1009.4
20260504180551 22 138 0.0 0.0 0.00 0.00 0.00 53 1009.5
20260504180138 22 142 0.0 0.0 0.00 0.00 0.00 55 1009.4
20260504175549 22 143 0.0 0.0 0.00 0.00 0.00 56 1009.5
20260504175052 22 143 0.0 0.0 0.00 0.00 0.00 56 1009.5
20260504174550 22 143 0.0 0.0 0.00 0.00 0.00 59 1009.4
20260504174049 21 143 0.0 0.0 0.00 0.00 0.00 61 1009.5
20260504173545 21 143 0.0 0.0 0.00 0.00 0.00 62 1009.5
20260504173056 20 143 0.0 0.0 0.00 0.00 0.00 64 1009.6
20260504172541 20 143 0.0 0.0 0.00 0.00 0.00 64 1009.6
20260504172040 19 143 0.0 0.0 0.00 0.00 0.00 67 1009.6
20260504171539 18 143 0.0 0.0 0.00 0.00 0.00 66 1009.6
20260504171039 18 143 0.0 0.0 0.00 0.00 0.00 67 1009.6
20260504170539 18 145 0.0 0.0 0.00 0.00 0.00 66 1009.4
20260504151028 15 148 0.0 1.6 0.00 0.00 0.00 79 1008.9
20260504150527 15 148 0.0 3.2 0.00 0.00 0.00 80 1008.9
20260504141022 12 148 0.0 0.0 0.00 0.00 0.00 83 1008.5
20260504140520 12 148 0.0 0.0 0.00 0.00 0.00 83 1008.5
20260504130514 12 148 0.0 0.0 0.00 0.00 0.00 81 1008.1